| time (UTC) | temp C | wind direction | speed KPH | gust KPH | rain 1hr cm | rain 24hr cm | rain mn cm | humidity % | barometer mb |
| 20260906231518 | 16 | 131 | 0.0 | 1.6 | 0.00 | 0.33 | 0.15 | 75 | 1015.3 |
| 20260906230016 | 15 | 155 | 0.0 | 3.2 | 0.00 | 0.33 | 0.15 | 77 | 1015.5 |
| 20260906224515 | 15 | 75 | 0.0 | 1.6 | 0.00 | 0.33 | 0.15 | 78 | 1015.6 |
| 20260906223014 | 15 | 153 | 0.0 | 0.0 | 0.00 | 0.33 | 0.15 | 80 | 1015.6 |
| 20260906221511 | 14 | 153 | 0.0 | 0.0 | 0.00 | 0.33 | 0.15 | 82 | 1015.8 |
| 20260906220008 | 14 | 227 | 0.0 | 1.6 | 0.00 | 0.33 | 0.15 | 81 | 1015.8 |
| 20260906214517 | 14 | 137 | 0.0 | 3.2 | 0.00 | 0.36 | 0.15 | 80 | 1015.9 |
| 20260906213009 | 15 | 146 | 0.0 | 3.2 | 0.00 | 0.36 | 0.15 | 79 | 1016.0 |
| 20260906211504 | 14 | 133 | 0.0 | 6.4 | 0.00 | 0.36 | 0.15 | 81 | 1016.1 |
| 20260906210002 | 13 | 148 | 0.0 | 3.2 | 0.00 | 0.46 | 0.15 | 83 | 1016.2 |
| 20260906204609 | 13 | 140 | 0.0 | 1.6 | 0.00 | 0.46 | 0.15 | 86 | 1016.2 |
| 20260906203056 | 13 | 94 | 0.0 | 1.6 | 0.00 | 0.46 | 0.15 | 87 | 1016.3 |
| 20260906201600 | 12 | 94 | 0.0 | 4.8 | 0.00 | 0.46 | 0.15 | 90 | 1016.5 |
| 20260906200051 | 12 | 82 | 0.0 | 1.6 | 0.00 | 0.46 | 0.15 | 91 | 1016.5 |
| 20260906194548 | 12 | 118 | 0.0 | 6.4 | 0.00 | 0.56 | 0.15 | 92 | 1016.8 |
| 20260906193046 | 12 | 97 | 0.0 | 4.8 | 0.00 | 0.56 | 0.15 | 93 | 1016.7 |
| 20260906191544 | 11 | 60 | 0.0 | 4.8 | 0.00 | 0.56 | 0.15 | 93 | 1016.9 |
| 20260906190041 | 11 | 87 | 0.0 | 4.8 | 0.00 | 0.56 | 0.15 | 92 | 1017.0 |
| 20260906184540 | 11 | 89 | 0.0 | 8.0 | 0.00 | 0.58 | 0.15 | 92 | 1017.3 |
| 20260906183036 | 11 | 67 | 1.6 | 6.4 | 0.00 | 0.58 | 0.15 | 92 | 1017.3 |
| 20260906181536 | 11 | 81 | 0.0 | 4.8 | 0.00 | 0.58 | 0.15 | 92 | 1017.4 |
| 20260906180031 | 10 | 86 | 0.0 | 6.4 | 0.00 | 0.58 | 0.15 | 92 | 1017.4 |
| 20260906174527 | 10 | 98 | 0.0 | 6.4 | 0.00 | 0.61 | 0.15 | 93 | 1017.5 |
| 20260906173024 | 10 | 80 | 0.0 | 6.4 | 0.00 | 0.61 | 0.15 | 92 | 1017.7 |
| 20260906171521 | 10 | 77 | 0.0 | 4.8 | 0.00 | 0.61 | 0.15 | 92 | 1017.9 |
| 20260906170029 | 10 | 66 | 0.0 | 4.8 | 0.00 | 0.61 | 0.15 | 92 | 1018.1 |
| 20260906164516 | 10 | 85 | 0.0 | 3.2 | 0.00 | 0.61 | 0.15 | 92 | 1018.3 |
| 20260906163011 | 10 | 80 | 0.0 | 1.6 | 0.00 | 0.61 | 0.15 | 92 | 1018.6 |
| 20260906161510 | 10 | 79 | 0.0 | 0.0 | 0.00 | 0.61 | 0.15 | 92 | 1018.8 |
| 20260906160009 | 10 | 79 | 0.0 | 0.0 | 0.00 | 0.61 | 0.15 | 92 | 1018.8 |
| 20260906154517 | 10 | 80 | 0.0 | 0.0 | 0.00 | 0.61 | 0.15 | 92 | 1018.8 |
| 20260906153014 | 10 | 79 | 0.0 | 1.6 | 0.00 | 0.61 | 0.15 | 92 | 1018.8 |
| 20260906151503 | 9 | 65 | 0.0 | 1.6 | 0.00 | 0.61 | 0.15 | 93 | 1018.7 |
| 20260906150002 | 9 | 212 | 0.0 | 0.0 | 0.00 | 0.61 | 0.15 | 93 | 1018.7 |
| 20260906144500 | 9 | 212 | 0.0 | 0.0 | 0.00 | 0.61 | 0.15 | 92 | 1018.8 |
| 20260906143130 | 9 | 212 | 0.0 | 0.0 | 0.00 | 0.61 | 0.15 | 93 | 1018.7 |
| 20260906141600 | 9 | 212 | 0.0 | 0.0 | 0.00 | 0.61 | 0.15 | 93 | 1018.8 |
| 20260906140100 | 8 | 212 | 0.0 | 0.0 | 0.00 | 0.61 | 0.15 | 92 | 1019.0 |
| 20260906134611 | 8 | 251 | 0.0 | 0.0 | 0.03 | 0.61 | 0.15 | 93 | 1018.7 |
| 20260906133059 | 8 | 251 | 0.0 | 0.0 | 0.05 | 0.61 | 0.15 | 92 | 1019.0 |
| 20260906131557 | 8 | 251 | 0.0 | 0.0 | 0.08 | 0.61 | 0.15 | 92 | 1019.0 |
| 20260906130055 | 8 | 251 | 0.0 | 0.0 | 0.10 | 0.61 | 0.15 | 92 | 1019.0 |
| 20260906124555 | 8 | 251 | 0.0 | 0.0 | 0.13 | 0.61 | 0.13 | 92 | 1019.2 |
| 20260906123119 | 8 | 251 | 0.0 | 0.0 | 0.10 | 0.58 | 0.10 | 92 | 1019.5 |
| 20260906121551 | 9 | 251 | 0.0 | 0.0 | 0.05 | 0.53 | 0.05 | 92 | 1019.5 |
| 20260906120049 | 9 | 243 | 0.0 | 0.0 | 0.05 | 0.51 | 0.05 | 92 | 1019.6 |
| 20260906114547 | 9 | 222 | 0.0 | 1.6 | 0.00 | 0.48 | 0.00 | 92 | 1020.2 |
| 20260906113046 | 9 | 131 | 0.0 | 0.0 | 0.00 | 0.48 | 0.00 | 92 | 1020.4 |
| 20260906111546 | 9 | 30 | 0.0 | 0.0 | 0.00 | 0.48 | 0.00 | 92 | 1020.5 |
| 20260906110045 | 9 | 30 | 0.0 | 0.0 | 0.00 | 0.48 | 0.00 | 92 | 1020.6 |
| 20260906104545 | 8 | 30 | 0.0 | 0.0 | 0.00 | 0.48 | 0.00 | 92 | 1020.7 |
| 20260906103048 | 8 | 30 | 0.0 | 0.0 | 0.00 | 0.48 | 0.00 | 92 | 1020.6 |
| 20260906101544 | 8 | 82 | 0.0 | 1.6 | 0.00 | 0.48 | 0.00 | 92 | 1020.1 |
| 20260906100042 | 8 | 83 | 0.0 | 3.2 | 0.00 | 0.48 | 0.00 | 92 | 1020.4 |
| 20260906094539 | 9 | 70 | 0.0 | 1.6 | 0.00 | 0.48 | 0.00 | 92 | 1020.3 |
| 20260906093041 | 9 | 81 | 0.0 | 1.6 | 0.00 | 0.48 | 0.00 | 92 | 1020.6 |
| 20260906091550 | 9 | 68 | 0.0 | 0.0 | 0.00 | 0.48 | 0.00 | 92 | 1020.7 |
| 20260906090036 | 9 | 68 | 0.0 | 0.0 | 0.00 | 0.48 | 0.00 | 92 | 1020.7 |
| 20260906084534 | 9 | 68 | 0.0 | 0.0 | 0.00 | 0.48 | 0.00 | 92 | 1020.9 |
| 20260906083035 | 9 | 68 | 0.0 | 0.0 | 0.00 | 0.48 | 0.00 | 92 | 1021.2 |
| 20260906081529 | 9 | 68 | 0.0 | 0.0 | 0.00 | 0.48 | 0.00 | 92 | 1021.4 |
| 20260906080031 | 9 | 68 | 0.0 | 0.0 | 0.00 | 0.48 | 0.00 | 91 | 1021.7 |
| 20260906074528 | 9 | 68 | 0.0 | 0.0 | 0.00 | 0.48 | 0.00 | 91 | 1021.4 |
| 20260906073027 | 9 | 330 | 0.0 | 0.0 | 0.00 | 0.48 | 0.00 | 91 | 1021.5 |
| 20260906071525 | 9 | 328 | 0.0 | 0.0 | 0.00 | 0.48 | 0.00 | 91 | 1021.6 |
| 20260906070023 | 9 | 328 | 0.0 | 0.0 | 0.00 | 0.48 | 0.00 | 91 | 1021.8 |
| 20260906064522 | 9 | 328 | 0.0 | 0.0 | 0.00 | 0.48 | 0.00 | 91 | 1021.8 |
| 20260906063018 | 10 | 329 | 0.0 | 0.0 | 0.03 | 0.48 | 0.00 | 91 | 1021.8 |
| 20260906061515 | 10 | 329 | 0.0 | 0.0 | 0.03 | 0.48 | 0.00 | 91 | 1021.7 |
| 20260906060010 | 10 | 329 | 0.0 | 0.0 | 0.03 | 0.48 | 0.00 | 91 | 1021.7 |
| 20260906054509 | 10 | 329 | 0.0 | 0.0 | 0.03 | 0.48 | 0.48 | 91 | 1021.6 |
| 20260906053009 | 10 | 328 | 0.0 | 0.0 | 0.00 | 0.46 | 0.46 | 91 | 1021.8 |
| 20260906051508 | 10 | 290 | 0.0 | 0.0 | 0.05 | 0.46 | 0.46 | 91 | 1021.8 |
| 20260906050008 | 10 | 241 | 0.0 | 0.0 | 0.05 | 0.46 | 0.46 | 91 | 1021.7 |
| 20260906044507 | 10 | 241 | 0.0 | 0.0 | 0.05 | 0.46 | 0.46 | 91 | 1021.8 |
| 20260906043007 | 10 | 255 | 0.0 | 0.0 | 0.05 | 0.46 | 0.46 | 91 | 1021.8 |
| 20260906041505 | 10 | 299 | 0.0 | 0.0 | 0.00 | 0.43 | 0.43 | 91 | 1021.8 |
| 20260906040005 | 10 | 345 | 0.0 | 0.0 | 0.00 | 0.43 | 0.43 | 91 | 1021.6 |
| 20260906034501 | 10 | 342 | 0.0 | 0.0 | 0.00 | 0.43 | 0.43 | 91 | 1021.3 |
| 20260906033110 | 10 | 13 | 0.0 | 0.0 | 0.00 | 0.43 | 0.43 | 91 | 1021.2 |
| 20260906031558 | 9 | 5 | 0.0 | 1.6 | 0.00 | 0.43 | 0.43 | 91 | 1021.0 |
| 20260906030057 | 9 | 339 | 0.0 | 1.6 | 0.00 | 0.43 | 0.43 | 91 | 1020.8 |
| 20260906024558 | 9 | 319 | 0.0 | 3.2 | 0.00 | 0.43 | 0.43 | 91 | 1020.7 |
| 20260906023059 | 10 | 323 | 0.0 | 1.6 | 0.00 | 0.43 | 0.43 | 91 | 1020.7 |
| 20260906021559 | 9 | 305 | 0.0 | 1.6 | 0.00 | 0.43 | 0.43 | 91 | 1020.8 |
| 20260906020106 | 10 | 290 | 0.0 | 3.2 | 0.03 | 0.43 | 0.43 | 91 | 1020.9 |
| 20260906014600 | 10 | 271 | 0.0 | 1.6 | 0.03 | 0.43 | 0.43 | 91 | 1020.9 |
| 20260906013106 | 10 | 266 | 0.0 | 1.6 | 0.03 | 0.43 | 0.43 | 91 | 1020.9 |
| 20260906011602 | 10 | 259 | 0.0 | 1.6 | 0.05 | 0.43 | 0.43 | 91 | 1020.7 |
| 20260906010052 | 10 | 275 | 0.0 | 0.0 | 0.03 | 0.41 | 0.41 | 91 | 1020.5 |
| 20260906004601 | 9 | 239 | 0.0 | 0.0 | 0.05 | 0.41 | 0.41 | 91 | 1020.5 |
| 20260906003053 | 9 | 314 | 0.0 | 3.2 | 0.05 | 0.41 | 0.41 | 91 | 1020.6 |
| 20260906001552 | 9 | 322 | 0.0 | 3.2 | 0.05 | 0.38 | 0.38 | 90 | 1020.5 |
| 20260906000056 | 9 | 15 | 0.0 | 1.6 | 0.08 | 0.38 | 0.38 | 90 | 1020.5 |
| 20260905234550 | 9 | 29 | 0.0 | 1.6 | 0.05 | 0.36 | 0.36 | 90 | 1020.5 |
| 20260905233049 | 9 | 17 | 0.0 | 1.6 | 0.05 | 0.33 | 0.33 | 90 | 1020.5 |